Location: Famechon
(49.7599°N, 2.0615°E)
Time: 15:37:24
(UTC+00:00)

COSMOS 2455 - Visible Passes

Search period start: 30 September 2023 00:00
Search period end: 10 October 2023 00:00
Orbit: 901 x 908 km, 67.1° (Epoch: 30 September)

Date Brightness Start Highest point End Pass type
(mag) Time Alt. Az. Time Alt. Az. Time Alt. Az.
30 Sep 3.4 19:06:00 10° NW 19:11:55 59° WSW 19:17:47 10° SSE visible
30 Sep 5.5 20:55:22 10° W 20:56:35 11° W 20:57:49 10° WSW visible
01 Oct 3.8 19:10:03 10° NW 19:15:45 45° WSW 19:21:25 10° S visible
02 Oct 4.3 19:14:09 10° NW 19:19:32 35° WSW 19:24:53 10° S visible
03 Oct 4.8 19:18:21 10° NW 19:23:17 27° WSW 19:28:11 10° SSW visible
04 Oct 5.2 19:22:42 10° WNW 19:26:59 20° WSW 19:31:14 10° SSW visible
05 Oct 5.5 19:27:20 10° WNW 19:30:38 15° WSW 19:33:56 10° SW visible
06 Oct 3.6 17:43:38 10° NW 17:49:34 60° WSW 17:55:27 10° SSE visible
06 Oct 5.8 19:32:49 10° W 19:34:15 11° W 19:35:42 10° WSW visible
07 Oct 4.1 17:47:41 10° NW 17:53:24 46° WSW 17:59:05 10° S visible
08 Oct 4.6 17:51:46 10° NW 17:57:11 36° WSW 18:02:34 10° S visible
09 Oct 5.2 17:55:59 10° NW 18:00:56 27° WSW 18:05:52 10° SSW visible
